Погода в Оздере

Турция     38°00′54″N   27°07′43″E
темп.,
°C
ветер,
м/с
пор.,
м/с
влажн.,
%
обл.,
%
осадки,
мм/ч
давл.,
гПа
погр.,
м
28 сентября, вт
вт2800:00+18ссв33520 0.0 101233
03:00+16ссв33610 0.0 101345
06:00+15ссв33700 0.0 101357
09:00+19ссв34530 0.0 1013243
12:00+28ссв35290 0.0 1012932
15:00+31сз35220 0.0 10111639
18:00+29с46235 0.0 10101235
21:00+20ссв334677 0.0 101343
29 сентября, ср
ср2900:00+18ссв3362100 0.0 101461
03:00+16ссв3470100 0.0 1014109
06:00+15ссв3573100 0.0 1014142
09:00+18ссв465693 0.0 1014410
12:00+25ссв4533100 0.0 1014988
15:00+27ссв66290 0.0 10121441
18:00+25с68330 0.0 10121103
21:00+18ссв48530 0.0 1014275
30 сентября, чт
чт3000:00+15ссв35645 0.0 1015111
03:00+13ссв35777 0.0 1015124
06:00+12ссв358521 0.0 1015114
09:00+16ссв46654 0.0 1015416
12:00+24ссв563713 0.0 10141048
15:00+26ссв45318 0.0 10131427
18:00+26с56310 0.0 1012961
21:00+18ссв36480 0.0 1014132
1 октября, пт
пт100:00+15ссв34640 0.0 101579
03:00+13ссв34775 0.0 101579
06:00+12ссв34815 0.0 101580
09:00+16ссв35605 0.0 1015252
12:00+25ссв34305 0.0 1015862
15:00+29сз12255 0.0 10131331
18:00+25юз12385 0.0 1013170
21:00+19св22495 0.0 101419
2 октября, сб
сб200:00+16ссв33535 0.0 101441
03:00+14ссв336484 0.0 101447
06:00+13ссв22715 0.0 101441
09:00+17ссв23525 0.0 1014226
12:00+26зсз12275 0.0 1013822
15:00+26юз43357 0.0 1013933
18:00+21юз345724 0.0 1013286
21:00+17юз118414 0.0 101427